This is the latest recevied weather packets stored in our database for station/object W3BRL. If no packets are shown the sender has not sent any weather packets the latest 10 day(s).
| Time | Temp. | Humidity | Pressure | Rain* | Wind** | Luminosity | Snow |
|---|---|---|---|---|---|---|---|
| 1777387092 | 12.78° C | 85% | 1012.2 hPa | 0 mm | - | 121 W/m² | - |
| 1777385879 | 12.22° C | 87% | 1012.4 hPa | 0 mm | - | 56 W/m² | - |
| 1777384969 | 11.67° C | 88% | 1012.1 hPa | 0 mm | - | 66 W/m² | - |
| 1777384666 | 11.67° C | 89% | 1012.1 hPa | 0 mm | - | 79 W/m² | - |
| 1777383758 | 11.67° C | 88% | 1012.2 hPa | 0 mm | - | 73 W/m² | - |
| 1777383455 | 11.67° C | 88% | 1012 hPa | 0 mm | - | 77 W/m² | - |
| 1777383151 | 11.67° C | 88% | 1012.1 hPa | 0 mm | - | 95 W/m² | - |
| 1777382848 | 11.67° C | 88% | 1012 hPa | 0 mm | - | 118 W/m² | - |
| 1777382240 | 11.11° C | 88% | 1012 hPa | 0 mm | - | 109 W/m² | - |
| 1777380725 | 11.11° C | 89% | 1012.1 hPa | 0 mm | - | 132 W/m² | - |
| 1777379814 | 10.56° C | 90% | 1012.2 hPa | 0 mm | - | 154 W/m² | - |
| 1777379205 | 10.56° C | 91% | 1012 hPa | 0 mm | - | 145 W/m² | - |
| 1777378900 | 10.56° C | 91% | 1011.9 hPa | 0 mm | - | 143 W/m² | - |
| 1777378597 | 10.56° C | 92% | 1012 hPa | 0 mm | - | 127 W/m² | - |
| 1777378293 | 10.56° C | 92% | 1012 hPa | 0 mm | - | 108 W/m² | - |
| 1777377692 | 10.56° C | 92% | 1012 hPa | 0 mm | - | 70 W/m² | - |
| 1777377387 | 10° C | 93% | 1012 hPa | 0 mm | - | 44 W/m² | - |
| 1777377084 | 10.56° C | 92% | 1012 hPa | 0 mm | - | 27 W/m² | - |
| 1777375869 | 10.56° C | 91% | 1012.1 hPa | 0 mm | - | 23 W/m² | - |
| 1777375563 | 10.56° C | 90% | 1011.9 hPa | 0 mm | - | 12 W/m² | - |
| 1777375259 | 10.56° C | 90% | 1011.5 hPa | 0 mm | - | 13 W/m² | - |
| 1777374955 | 10.56° C | 90% | 1010.5 hPa | 0 mm | - | 12 W/m² | - |
| 1777374651 | 10.56° C | 90% | 1010.2 hPa | 0 mm | - | 11 W/m² | - |
| 1777374347 | 10.56° C | 91% | 1010.3 hPa | 0 mm | - | 9 W/m² | - |
| 1777373439 | 10.56° C | 89% | 1011.7 hPa | 1.27 mm | - | 5 W/m² | - |
* Rain latest hour (hover to see other rain measurements)
** Current wind speed in m/s (hover to see current wind gust speed)